Wind_Speed
24 24 24 25 25 25 26 26 25 26 26 26 26 26 27 27 27 26 25 26 26 26 27 28 27 26 26 27 29 30 29 28 28 28 27 27 27 29 29 29 29 29 29
23 23 24 24 24 25 26 26 26 25 25 25 26 26 26 27 26 26 25 25 25 25 25 27 27 26 25 26 27 29 30 30 30 28 28 28 29 29 30 31 30 30 31
21 22 23 24 24 25 25 26 25 25 25 25 25 25 26 26 26 26 26 25 25 25 24 25 25 26 26 26 26 27 29 30 30 29 30 30 30 30 30 31 32 32 32
21 22 23 23 24 24 25 25 25 25 25 25 24 25 25 25 26 26 26 26 26 26 26 26 25 25 26 26 27 26 27 28 28 29 29 30 31 31 31 32 33 33 33
20 21 22 23 24 24 25 25 25 25 25 25 25 25 25 25 25 25 25 25 26 26 26 26 26 26 26 26 27 27 27 27 28 29 30 32 32 32 33 34 34 34 34
20 21 22 23 23 23 24 25 25 25 25 25 25 25 25 25 25 26 25 25 25 26 26 26 27 27 27 27 27 28 29 28 28 28 29 31 31 32 33 34 34 35 34
19 20 21 22 22 22 22 24 24 24 24 24 25 25 25 25 26 26 26 26 26 26 26 27 28 28 28 28 28 27 28 28 28 28 28 29 30 31 32 33 33 34 35
19 19 20 21 22 23 23 23 23 23 23 24 25 25 26 26 26 26 26 26 26 27 28 28 28 28 29 29 28 27 27 27 28 28 28 29 30 30 32 32 32 33 33
19 20 20 21 21 22 22 23 22 23 24 24 25 26 26 27 26 26 25 26 27 28 28 29 28 28 28 28 28 28 28 28 29 29 28 28 28 28 29 31 31 32 32
20 21 21 21 21 21 22 22 22 23 24 24 24 25 25 25 25 26 27 26 27 28 29 29 29 29 29 29 29 29 29 28 28 28 29 28 28 28 28 29 30 31 32
20 21 21 22 22 22 22 22 22 22 23 23 23 23 23 24 24 25 26 26 26 27 28 28 28 28 29 30 29 29 28 28 28 29 29 29 30 30 30 31 32 32 33
21 21 22 22 23 22 22 21 22 22 22 22 22 23 23 23 24 24 25 25 26 26 27 27 27 28 28 28 28 27 27 28 29 29 29 29 29 30 31 32 31 31 31
21 21 22 22 23 22 22 21 22 22 21 21 22 22 22 23 23 24 24 25 25 26 25 25 25 25 25 25 25 27 27 28 29 29 29 29 29 30 30 31 30 31 31
21 21 21 21 22 22 22 22 22 22 21 21 21 21 21 22 22 22 22 23 23 23 23 23 24 24 23 24 24 25 25 27 27 27 27 27 28 29 29 29 30 31 31
22 21 21 22 22 22 22 21 21 21 20 21 20 20 20 19 19 19 19 19 20 21 21 21 21 22 22 23 23 24 24 24 25 26 26 26 27 27 28 28 28 28 28
22 21 21 21 20 20 20 20 19 18 18 18 18 18 18 18 18 18 18 18 19 19 20 21 20 21 21 22 22 23 23 24 24 25 25 25 26 25 25 25 26 26 26
21 21 20 20 19 19 18 17 16 15 15 15 15 15 16 16 16 16 16 16 17 17 17 17 18 18 19 20 21 22 21 21 22 22 21 21 22 22 23 23 24 24 24
20 19 19 18 18 17 16 15 14 13 13 13 12 13 13 13 13 13 13 13 13 13 13 13 14 15 16 16 17 17 17 17 18 18 19 20 21 21 21 21 21 21 22
17 17 16 16 15 15 14 13 12 12 11 11 10 10 9 9 9 10 10 10 10 10 10 11 11 12 12 13 13 13 14 15 15 16 17 17 18 18 18 19 19 19 20
15 15 14 13 12 11 10 10 9 9 8 8 8 6 6 7 7 7 7 7 8 8 9 9 9 10 11 10 10 10 11 11 12 13 14 14 15 15 15 15 16 17 17
14 12 11 10 9 8 7 7 6 5 5 4 3 3 3 3 4 4 4 5 6 7 6 7 7 7 7 7 7 7 8 8 9 10 10 11 11 12 12 12 13 13 13
11 10 8 7 6 5 4 4 3 1 1 1 1 1 1 2 2 2 2 3 3 3 3 3 3 3 3 3 4 4 5 5 6 6 7 7 8 8 8 9 9 9 9
9 7 5 4 3 2 2 2 2 2 2 2 2 2 1 1 1 1 1 1 1 1 1 1 1 1 1 1 2 2 3 3 3 4 4 4 4 5 5 5 6 6 6
6 5 4 3 3 3 2 3 3 3 3 4 4 4 4 3 3 4 4 4 4 4 4 4 4 4 4 4 4 4 4 4 4 4 4 4 4 4 4 4 4 4 5
5 5 4 4 4 4 5 5 5 6 6 5 6 6 6 7 7 7 7 7 7 6 6 6 6 6 7 7 7 7 7 6 6 6 6 5 5 5 5 5 5 5 5
6 6 6 6 6 7 7 7 7 7 7 7 8 8 9 9 9 9 9 9 9 9 9 9 9 9 9 9 9 9 9 9 9 8 8 8 7 7 7 6 6 5 5
Wind_Direction
267 268 269 269 270 271 271 271 271 270 269 269 268 268 267 266 265 267 267 265 265 263 261 262 264 261 258 255 254 254 253 255 257 258 255 254 253 252 252 251 247 247 250
267 268 269 270 270 270 270 270 270 269 269 268 268 268 267 266 264 264 265 267 265 264 264 263 262 258 258 256 253 251 251 254 256 256 256 255 253 253 252 251 248 247 249
270 270 271 272 270 270 269 270 270 269 268 268 268 268 266 266 264 263 264 265 265 264 263 263 260 258 256 255 254 250 250 252 253 255 255 256 255 253 251 249 249 248 250
271 271 272 272 273 271 271 271 270 269 268 267 267 267 264 264 264 262 262 263 263 261 260 262 260 258 256 254 253 253 253 251 252 254 255 255 253 252 251 252 251 251 251
272 273 273 274 274 273 271 270 268 268 267 267 267 266 264 264 263 263 261 261 261 260 259 260 259 257 255 254 254 253 254 253 254 254 255 253 254 254 254 254 252 253 252
274 275 276 276 275 275 272 268 268 268 268 266 265 265 264 263 262 262 261 260 260 259 259 257 256 256 255 256 254 253 253 254 255 255 254 254 256 254 253 251 250 252 254
279 279 278 276 276 276 273 270 269 268 267 266 265 265 264 263 263 262 262 261 260 258 257 256 254 255 256 256 256 254 253 253 254 254 255 256 256 253 250 252 251 252 254
282 282 282 279 278 277 276 273 272 270 268 267 266 266 265 265 265 264 262 262 261 258 257 255 254 255 255 256 256 254 253 252 253 254 254 255 256 253 251 252 251 252 254
285 286 286 286 284 279 276 275 274 272 271 270 268 267 266 265 264 264 263 263 262 261 258 256 255 254 255 256 256 254 254 254 253 253 254 255 253 254 252 251 252 254 257
287 289 289 288 287 285 282 280 279 276 274 274 272 271 267 265 265 262 262 263 262 260 258 256 254 253 255 255 256 256 256 255 254 253 253 251 251 253 252 251 253 255 258
287 290 290 291 289 287 285 284 282 279 278 277 275 272 268 266 264 260 260 261 262 260 259 259 258 257 257 257 256 256 255 255 256 257 256 252 252 254 255 257 258 259 260
289 291 291 292 292 291 290 287 284 282 281 280 278 275 271 267 263 261 259 260 261 261 261 260 260 259 259 259 257 256 256 257 257 258 257 257 258 259 259 261 263 264 265
291 292 291 292 293 292 291 289 286 285 283 281 279 276 272 268 265 264 263 263 263 264 264 262 261 260 259 258 257 257 257 257 257 258 259 259 260 263 264 264 266 267 269
295 294 294 294 293 292 291 288 286 284 282 280 280 278 274 269 266 265 265 265 264 264 263 262 261 261 260 260 259 260 261 260 259 260 261 262 263 265 266 268 269 270 271
296 296 295 294 293 292 291 289 286 284 283 281 279 277 274 271 267 266 266 264 262 260 262 263 261 260 261 262 261 262 263 263 262 263 263 263 264 266 268 270 271 272 273
297 298 297 297 295 292 292 291 289 287 285 281 278 276 273 271 268 268 266 264 263 262 263 262 260 260 260 262 263 263 263 264 264 265 266 266 266 269 270 272 273 274 275
300 300 300 299 297 295 295 292 289 286 284 281 278 274 272 273 269 264 263 262 263 265 265 263 262 262 262 263 264 265 264 265 265 267 269 270 270 271 272 274 275 276 277
302 300 299 298 298 297 296 294 289 284 283 282 281 278 277 274 268 264 264 264 265 266 265 264 266 264 264 264 266 267 267 268 266 267 271 272 273 271 272 274 276 277 279
305 304 302 300 299 299 298 293 287 283 282 282 281 277 276 274 269 264 263 265 268 269 269 267 268 266 268 271 272 272 272 271 272 272 274 274 274 272 273 275 278 280 281
309 305 303 302 301 301 299 297 293 286 284 286 282 279 280 275 269 271 268 271 275 275 276 274 273 270 270 272 272 275 277 276 276 278 279 279 278 279 279 279 281 282 284
314 311 308 306 305 307 307 305 302 292 287 287 282 285 288 288 281 281 279 281 282 282 282 277 276 276 272 271 276 278 279 280 282 283 284 284 284 283 284 286 287 287 289
319 316 315 316 315 317 318 321 331 340 343 347 329 326 313 311 307 297 284 286 288 288 285 279 280 280 273 279 286 288 290 292 293 292 291 293 295 295 296 297 298 298 298
329 330 333 341 345 345 347 2 29 58 69 59 46 42 26 12 20 19 44 49 96 84 60 63 53 48 39 13 355 346 338 331 326 323 320 319 319 319 316 314 312 310 310
351 359 8 19 31 32 44 63 74 89 87 80 75 71 72 70 73 77 87 91 95 90 82 78 80 76 68 61 58 48 38 34 30 26 20 11 5 358 352 348 344 339 332
21 34 47 55 62 71 83 89 93 96 93 92 89 86 87 85 87 88 92 92 93 91 86 85 82 80 75 72 67 60 55 53 50 46 43 40 36 32 26 19 11 2 354
42 54 62 70 80 86 91 95 97 97 98 95 95 94 93 90 88 88 90 92 93 91 88 85 81 79 76 73 71 68 65 62 59 56 54 51 47 43 38 34 29 24 16
Height
5838 5837 5837 5837 5837 5836 5836 5836 5836 5836 5835 5835 5835 5835 5835 5835 5835 5835 5835 5835 5836 5836 5836 5836 5837 5837 5838 5838 5839 5840 5841 5843 5844 5845 5846 5847 5848 5849 5850 5851 5852 5853 5854
5832 5832 5831 5831 5830 5830 5830 5829 5829 5829 5829 5829 5828 5828 5828 5828 5828 5829 5829 5829 5830 5830 5830 5830 5830 5831 5832 5832 5832 5833 5834 5836 5837 5838 5839 5840 5842 5842 5843 5845 5846 5846 5847
5827 5826 5825 5825 5824 5824 5824 5823 5822 5822 5822 5822 5822 5821 5821 5821 5822 5822 5823 5823 5823 5824 5824 5824 5824 5825 5825 5825 5825 5827 5828 5829 5831 5832 5833 5833 5835 5836 5836 5837 5839 5840 5840
5821 5820 5820 5819 5818 5817 5817 5817 5816 5816 5816 5815 5815 5815 5815 5815 5815 5815 5816 5816 5817 5817 5818 5818 5818 5818 5819 5819 5819 5821 5821 5822 5823 5825 5825 5826 5828 5829 5829 5830 5831 5832 5833
5816 5815 5814 5813 5812 5811 5810 5810 5809 5809 5809 5809 5808 5808 5808 5808 5808 5808 5809 5809 5810 5810 5811 5812 5811 5812 5812 5813 5813 5814 5815 5816 5816 5817 5818 5819 5820 5821 5822 5823 5824 5825 5825
5810 5809 5808 5807 5806 5805 5804 5803 5803 5802 5802 5802 5801 5801 5802 5802 5802 5802 5802 5802 5803 5803 5804 5804 5805 5805 5806 5806 5807 5807 5808 5809 5810 5810 5811 5812 5813 5813 5814 5815 5816 5817 5818
5805 5804 5802 5801 5800 5798 5797 5797 5796 5796 5795 5795 5795 5795 5795 5795 5795 5795 5795 5796 5796 5796 5797 5797 5798 5799 5799 5800 5800 5801 5801 5802 5803 5804 5804 5805 5806 5806 5807 5808 5809 5810 5810
5800 5798 5797 5795 5794 5792 5791 5790 5790 5789 5789 5788 5788 5788 5788 5788 5788 5788 5788 5789 5789 5789 5790 5790 5791 5791 5792 5793 5794 5794 5795 5795 5796 5797 5797 5798 5799 5799 5800 5801 5802 5802 5803
5795 5793 5791 5790 5787 5785 5784 5784 5783 5783 5782 5782 5781 5781 5781 5781 5781 5781 5781 5782 5782 5782 5782 5783 5784 5784 5785 5786 5787 5787 5788 5788 5789 5790 5791 5791 5792 5792 5793 5794 5795 5796 5795
5790 5788 5786 5784 5782 5780 5779 5778 5777 5776 5776 5775 5775 5774 5774 5774 5774 5774 5775 5775 5775 5775 5775 5776 5777 5778 5778 5779 5780 5780 5781 5782 5783 5783 5784 5784 5785 5785 5786 5786 5787 5787 5788
5785 5782 5780 5778 5776 5775 5773 5772 5771 5770 5769 5769 5768 5767 5767 5767 5767 5767 5768 5768 5768 5769 5769 5769 5770 5771 5771 5772 5773 5773 5774 5774 5775 5776 5776 5777 5778 5778 5779 5779 5779 5780 5780
5779 5777 5775 5773 5770 5769 5767 5765 5764 5763 5762 5762 5761 5761 5760 5760 5760 5760 5761 5761 5761 5762 5762 5762 5763 5764 5764 5765 5766 5766 5767 5768 5768 5769 5769 5770 5771 5771 5771 5772 5772 5772 5771
5773 5771 5769 5767 5765 5763 5761 5759 5758 5757 5756 5755 5754 5754 5753 5753 5753 5753 5754 5754 5754 5755 5755 5756 5756 5757 5757 5758 5759 5760 5760 5761 5762 5762 5763 5763 5764 5764 5764 5764 5764 5764 5764
5767 5765 5763 5761 5759 5757 5755 5753 5752 5750 5749 5748 5748 5747 5747 5747 5747 5747 5747 5747 5748 5748 5749 5749 5750 5750 5751 5752 5752 5753 5754 5754 5755 5756 5756 5756 5757 5757 5757 5757 5757 5757 5756
5762 5759 5757 5754 5753 5751 5749 5747 5745 5744 5743 5742 5741 5741 5740 5740 5741 5741 5741 5741 5742 5742 5743 5743 5744 5744 5745 5745 5746 5747 5747 5748 5748 5749 5749 5750 5750 5750 5750 5750 5749 5749 5748
5756 5753 5751 5748 5746 5745 5743 5741 5739 5738 5737 5736 5736 5735 5735 5735 5735 5735 5735 5736 5736 5737 5737 5738 5738 5738 5739 5739 5740 5740 5741 5741 5742 5742 5743 5743 5743 5743 5743 5743 5742 5742 5742
5750 5747 5745 5743 5741 5739 5737 5736 5734 5733 5732 5731 5731 5730 5730 5729 5729 5730 5730 5731 5731 5731 5732 5732 5732 5733 5733 5734 5734 5735 5735 5735 5735 5736 5736 5736 5736 5736 5736 5736 5736 5735 5735
5744 5742 5740 5738 5736 5734 5732 5731 5730 5729 5728 5727 5726 5726 5725 5725 5725 5725 5726 5726 5726 5727 5727 5727 5727 5728 5728 5729 5729 5729 5729 5729 5729 5730 5730 5730 5730 5730 5730 5730 5729 5729 5728
5739 5737 5735 5733 5731 5730 5728 5727 5726 5725 5724 5723 5723 5722 5722 5722 5722 5722 5722 5723 5723 5723 5723 5723 5723 5724 5724 5724 5724 5725 5724 5724 5724 5725 5725 5725 5725 5725 5724 5724 5724 5723 5722
5735 5733 5731 5729 5728 5726 5725 5723 5722 5722 5721 5720 5720 5720 5720 5719 5719 5719 5720 5720 5720 5720 5720 5720 5720 5720 5720 5721 5721 5721 5721 5720 5720 5720 5720 5720 5720 5720 5719 5719 5718 5717 5717
5732 5730 5728 5726 5725 5723 5722 5721 5720 5719 5719 5718 5718 5718 5718 5718 5718 5718 5718 5718 5718 5718 5718 5718 5718 5718 5718 5718 5718 5718 5718 5717 5717 5717 5717 5716 5716 5716 5715 5714 5714 5713 5712
5729 5727 5725 5724 5723 5722 5721 5720 5719 5718 5718 5718 5718 5718 5718 5717 5717 5717 5717 5716 5716 5716 5716 5716 5716 5716 5716 5716 5716 5716 5715 5715 5715 5714 5714 5714 5713 5713 5712 5711 5710 5710 5709
5727 5725 5724 5723 5722 5721 5721 5720 5719 5719 5718 5718 5718 5717 5717 5717 5717 5716 5716 5716 5716 5716 5716 5716 5716 5715 5715 5715 5715 5715 5714 5714 5713 5713 5712 5712 5711 5711 5710 5709 5708 5708 5707
5726 5724 5723 5722 5722 5721 5720 5720 5719 5719 5719 5719 5718 5718 5718 5718 5717 5717 5717 5716 5716 5716 5716 5716 5716 5716 5716 5715 5715 5715 5714 5713 5713 5712 5711 5711 5710 5709 5709 5708 5707 5706 5705
5726 5724 5723 5723 5722 5721 5721 5720 5720 5720 5720 5720 5720 5719 5719 5719 5719 5718 5718 5717 5717 5717 5718 5717 5717 5717 5717 5716 5716 5715 5714 5714 5713 5712 5712 5711 5710 5709 5708 5707 5706 5705 5704
5726 5725 5724 5724 5723 5723 5722 5722 5722 5722 5722 5722 5721 5721 5721 5721 5721 5720 5720 5719 5719 5719 5719 5719 5719 5719 5718 5717 5717 5716 5716 5715 5714 5714 5713 5712 5711 5709 5708 5707 5706 5705 5704